Location: Treviso
(45.6669°N, 12.2430°E)
Time: 00:45:37
(UTC+02:00)

CUBESAT XI-V - Pass Details

Date: 03 May 2019
Orbit: 668 x 694 km, 98.0° (Epoch: 21 May)

Event Time Altitude Azimuth Distance (km) Brightness Sun altitude
Exits shadow 04:19:36 23° 207° (SSW) 1,456 ? -15.0°
Maximum altitude 04:22:02 39° 262° (W) 1,016 ? -14.7°
Drops below altitude 10° 04:26:24 10° 332° (NNW) 2,128 ? -14.2°
Sets 04:28:46 0° 340° (NNW) 3,043 ? -13.8°
